Weather History for South Hill, VA

Change the Weather History Date:

Monday, March 17, 2014

  Actual Average (KEMV) Record (KEMV)
Temperature  
Mean Temperature 32 °F -  
Max Temperature 35 °F 58 °F 83 °F (1990)
Min Temperature 30 °F 35 °F 23 °F (1991)
Degree Days  
Heating Degree Days 32    
Moisture  
Dew Point 32 °F    
Average Humidity 100    
Maximum Humidity 100    
Minimum Humidity 100    
Precipitation  
Precipitation 0.04 in - - ()
Sea Level Pressure  
Sea Level Pressure 29.98 in    
Wind  
Wind Speed 8 mph (NNE)    
Max Wind Speed 12 mph    
Max Gust Speed 21 mph    
Visibility 8 miles    
Events Rain , Snow    
Averages and records for this station are not official NWS values.
T = Trace of Precipitation, MM = Missing Value Source: NWS Daily Summary

Daily Weather History Graph

Daily Weather History Graph

Search for Another Location

Airport:

Trip Planner

Search our weather history database for the weather conditions in past years. The results will help you decide how hot, cold, wet, or windy it might be!

Date:

Astronomy

Mar. 17, 2014 Rise Set
Actual Time 7:20 AM EDT 7:21 PM EDT
Civil Twilight 6:54 AM EDT 7:47 PM EDT
Nautical Twilight 6:24 AM EDT 8:17 PM EDT
Astronomical Twilight 5:54 AM EDT 8:47 PM EDT
Moon 8:33 PM EDT (3/17) 7:36 AM EDT (3/17)
Length of Visible Light 12h 52m
Length of Day
12h 01m
Full, 99% of the Moon is Illuminated
Mar 17
Full
Mar 23
Last Quarter
Mar 30
New
Apr 7
First Quarter
Apr 15
Full

Hourly Weather History & Observations

Time (EDT) Temp. Windchill Dew Point Humidity Pressure Visibility Wind Dir Wind Speed Gust Speed Precip Events Conditions
12:20 AM 35.6 °F 28.6 °F 35.6 °F 100% 29.95 in 7.0 mi NE 9.2 mph - 0.03 in Rain Rain
12:35 AM 35.6 °F 29.2 °F 35.6 °F 100% 29.96 in 7.0 mi NNE 8.1 mph - 0.04 in   Drizzle
12:55 AM 35.6 °F 30.7 °F 35.6 °F 100% 29.96 in 5.0 mi NE 5.8 mph - 0.01 in Rain Rain
1:15 AM 33.8 °F 25.8 °F 33.8 °F 100% 29.97 in 5.0 mi NNE 10.4 mph 19.6 mph 0.02 in Rain Rain
1:35 AM 33.8 °F 28.6 °F 33.8 °F 100% 29.97 in 5.0 mi NNE 5.8 mph - 0.03 in Rain Heavy Rain
2:15 AM 33.8 °F 25.8 °F 33.8 °F 100% 29.95 in 7.0 mi NNE 10.4 mph - N/A Rain Light Rain
2:35 AM 33.8 °F 29.6 °F 33.8 °F 100% 29.94 in 7.0 mi NNE 4.6 mph - N/A   Drizzle
2:55 AM 33.8 °F 27.7 °F 33.8 °F 100% 29.95 in 7.0 mi North 6.9 mph - N/A   Drizzle
3:15 AM 33.8 °F 26.4 °F 33.8 °F 100% 29.95 in 5.0 mi North 9.2 mph - N/A   Drizzle
3:35 AM 33.8 °F 27.0 °F 33.8 °F 100% 29.93 in 7.0 mi North 8.1 mph - N/A   Drizzle
3:55 AM 33.8 °F 25.3 °F 33.8 °F 100% 29.93 in 7.0 mi North 11.5 mph 16.1 mph N/A   Light Drizzle
4:15 AM 33.8 °F 26.4 °F 33.8 °F 100% 29.92 in 7.0 mi NNE 9.2 mph 17.3 mph N/A   Light Drizzle
4:35 AM 33.8 °F 25.8 °F 33.8 °F 100% 29.92 in 7.0 mi North 10.4 mph - N/A Rain Rain
4:55 AM 33.8 °F 25.3 °F 33.8 °F 100% 29.92 in 7.0 mi NNE 11.5 mph 20.7 mph N/A   Drizzle
5:15 AM 33.8 °F 26.4 °F 33.8 °F 100% 29.93 in 7.0 mi NNE 9.2 mph - N/A   Drizzle
5:35 AM 33.8 °F 27.7 °F 33.8 °F 100% 29.92 in 7.0 mi North 6.9 mph 17.3 mph N/A   Drizzle
5:55 AM 33.8 °F 27.0 °F 33.8 °F 100% 29.92 in 7.0 mi NNE 8.1 mph 16.1 mph N/A   Drizzle
6:15 AM 32.0 °F 24.2 °F 32.0 °F 100% 29.92 in 10.0 mi NNE 9.2 mph 16.1 mph N/A   Light Drizzle
6:35 AM 32.0 °F 24.8 °F 32.0 °F 100% 29.93 in 10.0 mi NNE 8.1 mph - N/A   Overcast
6:55 AM 32.0 °F 23.6 °F 32.0 °F 100% 29.94 in 10.0 mi NNE 10.4 mph 17.3 mph N/A   Overcast
7:15 AM 32.0 °F 23.6 °F 32.0 °F 100% 29.94 in 10.0 mi NNE 10.4 mph 16.1 mph N/A   Overcast
7:35 AM 32.0 °F 24.8 °F 32.0 °F 100% 29.95 in 10.0 mi NNE 8.1 mph 16.1 mph N/A   Overcast
7:55 AM 32.0 °F 23.6 °F 32.0 °F 100% 29.95 in 10.0 mi North 10.4 mph - N/A   Overcast
8:15 AM 30.2 °F 21.9 °F 30.2 °F 100% 29.97 in 7.0 mi North 9.2 mph - N/A   Overcast
8:35 AM 30.2 °F 22.6 °F 30.2 °F 100% 29.98 in 7.0 mi NNE 8.1 mph - N/A   Overcast
8:55 AM 30.2 °F 21.9 °F 30.2 °F 100% 29.97 in 4.0 mi NNE 9.2 mph - N/A   Overcast
9:15 AM 30.2 °F 24.3 °F 30.2 °F 100% 29.98 in 3.0 mi NNE 5.8 mph - N/A   Overcast
9:35 AM 30.2 °F 22.6 °F 30.2 °F 100% 29.98 in 2.5 mi North 8.1 mph - N/A   Overcast
9:55 AM 30.2 °F 23.4 °F 30.2 °F 100% 29.98 in 2.5 mi North 6.9 mph - N/A   Overcast
10:15 AM 30.2 °F 21.3 °F 30.2 °F 100% 29.97 in 3.0 mi NNE 10.4 mph 17.3 mph N/A Rain Light Freezing Rain
10:35 AM 30.2 °F 23.4 °F 30.2 °F 100% 29.97 in 3.0 mi NNE 6.9 mph - N/A Rain Light Freezing Rain
10:55 AM 32.0 °F 27.5 °F 32.0 °F 100% 29.98 in 4.0 mi NNE 4.6 mph - N/A   Light Drizzle
11:15 AM 32.0 °F 24.8 °F 32.0 °F 100% 29.99 in 3.0 mi North 8.1 mph - N/A Rain Light Rain
11:35 AM 32.0 °F 25.6 °F 32.0 °F 100% 29.98 in 5.0 mi NNE 6.9 mph - N/A Rain Rain
11:55 AM 32.0 °F 26.4 °F 32.0 °F 100% 30.01 in 5.0 mi NNE 5.8 mph - N/A Rain Rain
12:15 PM 32.0 °F 25.6 °F 32.0 °F 100% 30.00 in 7.0 mi North 6.9 mph - N/A Rain Rain
12:35 PM 32.0 °F 24.8 °F 32.0 °F 100% 30.00 in 10.0 mi NNE 8.1 mph - N/A Rain Rain
12:55 PM 32.0 °F 23.6 °F 32.0 °F 100% 30.01 in 5.0 mi North 10.4 mph - N/A Rain Light Rain
1:15 PM 30.2 °F 21.9 °F 30.2 °F 100% 30.00 in 7.0 mi North 9.2 mph - N/A Rain Light Freezing Rain
1:35 PM 32.0 °F 27.5 °F 32.0 °F 100% 30.02 in 4.0 mi North 4.6 mph - N/A Rain Light Rain
1:55 PM 30.2 °F 23.4 °F 30.2 °F 100% 30.00 in 2.5 mi North 6.9 mph - N/A Snow Light Snow
2:15 PM 30.2 °F 23.4 °F 30.2 °F 100% 30.00 in 1.5 mi North 6.9 mph - N/A Snow Light Snow
2:35 PM 30.2 °F 23.4 °F 30.2 °F 100% 29.98 in 2.0 mi NNE 6.9 mph - N/A Snow Light Snow
2:55 PM 30.2 °F 22.6 °F 30.2 °F 100% 29.98 in 3.0 mi North 8.1 mph - N/A Snow Light Snow
3:15 PM 30.2 °F 22.6 °F 30.2 °F 100% 29.99 in 10.0 mi North 8.1 mph - N/A Rain Light Freezing Rain
3:35 PM 30.2 °F 24.3 °F 30.2 °F 100% 29.99 in 10.0 mi North 5.8 mph - N/A Rain Light Freezing Rain
3:55 PM 30.2 °F 23.4 °F 30.2 °F 100% 29.99 in 10.0 mi NNE 6.9 mph - N/A Rain Light Freezing Rain
4:15 PM 30.2 °F 22.6 °F 30.2 °F 100% 30.00 in 10.0 mi North 8.1 mph - N/A Rain Light Freezing Rain
4:35 PM 30.2 °F 22.6 °F 30.2 °F 100% 30.00 in 10.0 mi NNE 8.1 mph - N/A Rain Light Freezing Rain
4:55 PM 30.2 °F 21.9 °F 30.2 °F 100% 30.00 in 10.0 mi North 9.2 mph - N/A Rain Light Freezing Rain
5:15 PM 30.2 °F 23.4 °F 30.2 °F 100% 29.98 in 10.0 mi NNE 6.9 mph - N/A Rain Light Freezing Rain
5:35 PM 30.2 °F 23.4 °F 30.2 °F 100% 30.00 in 10.0 mi North 6.9 mph - N/A Rain Light Freezing Rain
5:55 PM 30.2 °F 24.3 °F 30.2 °F 100% 29.99 in 10.0 mi NNE 5.8 mph - N/A Rain Light Freezing Rain
6:15 PM 30.2 °F 22.6 °F 30.2 °F 100% 29.99 in 10.0 mi North 8.1 mph - N/A Rain Light Freezing Rain
6:35 PM 30.2 °F 23.4 °F 30.2 °F 100% 30.00 in 10.0 mi NNE 6.9 mph - N/A   Light Freezing Rain
6:55 PM 30.2 °F 25.4 °F 30.2 °F 100% 30.01 in 10.0 mi North 4.6 mph - N/A   Overcast
7:15 PM 30.2 °F 24.3 °F 30.2 °F 100% 30.01 in 10.0 mi North 5.8 mph - N/A   Overcast
7:35 PM 30.2 °F 24.3 °F 30.2 °F 100% 30.01 in 10.0 mi NNE 5.8 mph - N/A   Overcast
7:55 PM 30.2 °F 23.4 °F 30.2 °F 100% 30.01 in 10.0 mi NNE 6.9 mph - N/A   Overcast
8:15 PM 30.2 °F 22.6 °F 30.2 °F 100% 30.00 in 10.0 mi NNE 8.1 mph - N/A Rain Light Freezing Rain
8:35 PM 30.2 °F 23.4 °F 30.2 °F 100% 30.03 in 10.0 mi NNE 6.9 mph - N/A   Light Freezing Rain
8:55 PM 30.2 °F 23.4 °F 30.2 °F 100% 30.04 in 10.0 mi NNE 6.9 mph - N/A   Overcast
9:15 PM 30.2 °F 24.3 °F 30.2 °F 100% 30.04 in 10.0 mi North 5.8 mph - N/A   Overcast
9:35 PM 30.2 °F 22.6 °F 30.2 °F 100% 30.04 in 10.0 mi NNE 8.1 mph - N/A   Overcast
9:55 PM 30.2 °F 26.7 °F 30.2 °F 100% 30.05 in 10.0 mi NNE 3.5 mph - N/A   Overcast
10:15 PM 30.2 °F 23.4 °F 30.2 °F 100% 30.05 in 10.0 mi North 6.9 mph - N/A   Light Freezing Rain
10:35 PM 30.2 °F 24.3 °F 30.2 °F 100% 30.06 in 10.0 mi NNE 5.8 mph - N/A Rain Light Freezing Rain
10:55 PM 30.2 °F 22.6 °F 30.2 °F 100% 30.06 in 10.0 mi NNE 8.1 mph - N/A Rain Light Freezing Rain
11:35 PM 30.2 °F 24.3 °F 30.2 °F 100% 30.07 in 10.0 mi North 5.8 mph - N/A Rain Light Freezing Rain
11:55 PM 30.2 °F 24.3 °F 30.2 °F 100% 30.06 in 10.0 mi NNE 5.8 mph - N/A Rain Light Freezing Rain